Location: Fours
(44.3167°N, 6.7000°E)
Time: 13:12:25
(UTC+00:00)

SL-08 R/B - Pass Details

Date: 30 November 2020
Orbit: 950 x 1018 km, 82.9° (Epoch: 25 January)

Event Time Altitude Azimuth Distance (km) Brightness Sun altitude
Rises 17:36:03 0° 352° (N) 3,652 7.4 -17.4°
Reaches altitude 10° 17:38:34 10° 354° (N) 2,696 6.7 -17.9°
Maximum altitude 17:44:44 82° 81° (E) 966 4.3 -19.0°
Drops below altitude 10° 17:50:50 10° 170° (S) 2,668 6.8 -20.0°
Sets 17:53:19 0° 171° (S) 3,612 7.5 -20.5°
